EW2874 Weather Reports


Display with metric or nautical units.
time (UTC)temp
F
wind
direction
speed
MPH
gust
MPH
rain 1hr
in
rain 24hr
in
rain mn
in
humidity
%
barometer
mb
20260504221032 84 214 7.0 16.0 0.00 0.00 0.00 21 999.8
20260504220016 84 223 8.0 16.0 0.00 0.00 0.00 23 999.7
20260504215519 84 213 11.0 20.0 0.00 0.00 0.00 21 999.8
20260504214510 84 202 9.0 19.0 0.00 0.00 0.00 22 999.7
20260504214004 84 163 9.0 16.0 0.00 0.00 0.00 25 999.8
20260504213507 84 183 10.0 20.0 0.00 0.00 0.00 24 999.9
20260504213006 84 217 8.0 20.0 0.00 0.00 0.00 25 999.9
20260504211459 84 236 9.0 20.0 0.00 0.00 0.00 24 999.7
20260504210955 84 213 8.0 15.0 0.00 0.00 0.00 25 999.8
20260504210456 84 188 8.0 15.0 0.00 0.00 0.00 26 999.9
20260504210144 83 192 10.0 16.0 0.00 0.00 0.00 26 998.8
20260504205953 84 194 9.0 16.0 0.00 0.00 0.00 27 999.9
20260504204518 83 233 11.0 16.0 0.00 0.00 0.00 27 999.0
20260504204448 84 263 10.0 16.0 0.00 0.00 0.00 28 1000.0
20260504203946 84 222 9.0 15.0 0.00 0.00 0.00 27 1000.0
20260504203453 83 225 10.0 18.0 0.00 0.00 0.00 29 1000.0
20260504202934 83 254 11.0 18.0 0.00 0.00 0.00 29 1000.2
20260504202432 83 229 9.0 16.0 0.00 0.00 0.00 29 1000.2
20260504201337 83 205 10.0 18.0 0.00 0.00 0.00 28 1000.2
20260504195747 83 211 7.0 18.0 0.00 0.00 0.00 32 1000.3
20260504195216 83 221 6.0 12.0 0.00 0.00 0.00 34 1000.3
20260504194648 83 241 6.0 13.0 0.00 0.00 0.00 31 1000.3
20260504194622 82 241 5.0 13.0 0.00 0.00 0.00 31 999.4
20260504194121 83 223 5.0 13.0 0.00 0.00 0.00 31 1000.4
20260504193558 82 178 7.0 15.0 0.00 0.00 0.00 32 1000.3
20260504193034 82 263 8.0 15.0 0.00 0.00 0.00 32 1000.4
20260504193002 82 259 11.0 15.0 0.00 0.00 0.00 33 999.4
20260504192505 82 256 9.0 15.0 0.00 0.00 0.00 34 1000.3
20260504191939 82 225 10.0 15.0 0.00 0.00 0.00 33 1000.3
20260504190845 82 244 7.0 12.0 0.00 0.00 0.00 36 1000.4
20260504190315 82 217 8.0 14.0 0.00 0.00 0.00 34 1000.5
20260504185807 81 221 8.0 14.0 0.00 0.00 0.00 34 1000.5
20260504184736 82 214 8.0 13.0 0.00 0.00 0.00 33 1000.7
20260504184213 82 244 6.0 14.0 0.00 0.00 0.00 34 1000.6
20260504183639 82 165 5.0 10.0 0.00 0.00 0.00 38 1000.6
20260504183111 81 139 5.0 10.0 0.00 0.00 0.00 37 1000.6
20260504183041 81 166 3.0 10.0 0.00 0.00 0.00 37 999.7
20260504182544 81 205 5.0 10.0 0.00 0.00 0.00 39 1000.7
20260504182038 80 185 6.0 11.0 0.00 0.00 0.00 43 1000.7
20260504180528 80 210 6.0 12.0 0.00 0.00 0.00 39 1000.8
20260504180029 80 218 6.0 11.0 0.00 0.00 0.00 39 1000.7
20260504175528 80 207 6.0 12.0 0.00 0.00 0.00 39 1000.8
20260504175029 79 148 6.0 12.0 0.00 0.00 0.00 39 1000.9
20260504174528 79 223 5.0 11.0 0.00 0.00 0.00 40 1000.9
20260504174025 79 204 5.0 11.0 0.00 0.00 0.00 42 1000.9
20260504173526 79 202 5.0 10.0 0.00 0.00 0.00 42 1000.9
20260504173026 78 141 6.0 12.0 0.00 0.00 0.00 42 1001.0
20260504172524 78 200 6.0 12.0 0.00 0.00 0.00 41 1001.1
20260504172021 78 132 5.0 11.0 0.00 0.00 0.00 42 1001.1
20260504171647 77 167 5.0 11.0 0.00 0.00 0.00 43 1000.3
20260504171525 78 197 6.0 11.0 0.00 0.00 0.00 43 1001.1
20260504171023 78 140 6.0 10.0 0.00 0.00 0.00 44 1001.2
20260504170521 78 177 6.0 10.0 0.00 0.00 0.00 44 1001.3
20260504160337 74 196 7.0 14.0 0.00 0.00 0.00 46 1001.4
20260504160149 73 209 5.0 14.0 0.00 0.00 0.00 49 1000.5
20260504150340 71 185 7.0 13.0 0.00 0.00 0.00 52 1001.3
20260504140810 68 147 5.0 11.0 0.00 0.00 0.00 58 1001.5
20260504140303 68 192 5.0 11.0 0.00 0.00 0.00 61 1001.6
20260504130736 63 161 4.0 9.0 0.00 0.00 0.00 65 1001.9
20260504130238 63 125 4.0 8.0 0.00 0.00 0.00 64 1001.9
20260504110516 57 130 5.0 7.0 0.00 0.00 0.00 72 1001.6
20260504110120 56 128 5.0 7.0 0.00 0.00 0.00 72 1001.0
20260504100325 58 117 6.0 9.0 0.00 0.00 0.00 69 1002.3
20260504081532 59 81 2.0 6.0 0.00 0.00 0.00 66 1003.9
20260504081503 59 80 4.0 6.0 0.00 0.00 0.00 66 1003.3
20260504081003 60 65 2.0 5.0 0.00 0.00 0.00 65 1004.2
20260504080441 60 63 3.0 6.0 0.00 0.00 0.00 65 1004.2
20260504070302 62 95 7.0 13.0 0.00 0.00 0.00 57 1004.4
20260504060111 61 88 5.0 7.0 0.00 0.00 0.00 57 1004.7
20260504050738 62 116 2.0 4.0 0.00 0.00 0.00 59 1006.8
20260504050238 62 116 0.0 4.0 0.00 0.00 0.00 55 1006.9
20260504045721 62 116 1.0 4.0 0.00 0.00 0.00 56 1006.9
20260504045222 62 116 3.0 5.0 0.00 0.00 0.00 53 1006.6
20260504044703 62 116 4.0 5.0 0.00 0.00 0.00 53 1006.6
20260504044628 61 116 2.0 5.0 0.00 0.00 0.00 53 1006.2
20260504044214 62 116 4.0 6.0 0.00 0.00 0.00 54 1006.6
20260504043704 62 118 5.0 7.0 0.00 0.00 0.00 54 1006.7
20260504043203 61 121 5.0 8.0 0.00 0.00 0.00 55 1006.8
20260504043053 61 121 4.0 8.0 0.00 0.00 0.00 55 1006.4
20260504042204 62 134 4.0 6.0 0.00 0.00 0.00 54 1007.0
20260504041704 62 290 2.0 4.0 0.00 0.00 0.00 54 1007.1
20260504040703 62 290 1.0 5.0 0.00 0.00 0.00 52 1007.1
20260504040204 63 290 2.0 5.0 0.00 0.00 0.00 51 1007.1
20260504035655 63 290 2.0 4.0 0.00 0.00 0.00 51 1007.0
20260504035156 62 290 1.0 3.0 0.00 0.00 0.00 51 1007.0
20260504033654 63 290 1.0 4.0 0.00 0.00 0.00 50 1007.0
20260504033149 62 290 1.0 4.0 0.00 0.00 0.00 51 1006.7
20260504033146 63 290 2.0 4.0 0.00 0.00 0.00 51 1007.1
20260504032658 63 290 2.0 5.0 0.00 0.00 0.00 51 1007.0
20260504032129 63 290 2.0 5.0 0.00 0.00 0.00 51 1007.1
20260504031632 63 290 3.0 5.0 0.00 0.00 0.00 52 1007.1
20260504031519 62 290 3.0 5.0 0.00 0.00 0.00 52 1006.7
20260504031124 63 290 4.0 5.0 0.00 0.00 0.00 52 1007.0
20260504030623 63 286 4.0 5.0 0.00 0.00 0.00 51 1007.0
20260504030124 62 286 3.0 5.0 0.00 0.00 0.00 52 1007.1
20260504025619 62 286 2.0 5.0 0.00 0.00 0.00 53 1007.1
20260504025121 62 286 0.0 0.0 0.00 0.00 0.00 53 1007.1
20260504023614 63 286 3.0 5.0 0.00 0.00 0.00 51 1007.0
20260504023114 63 286 3.0 5.0 0.00 0.00 0.00 51 1007.1
20260504022607 63 286 2.0 5.0 0.00 0.00 0.00 51 1007.1
20260504022105 63 286 2.0 4.0 0.00 0.00 0.00 53 1007.0
20260504021605 64 286 2.0 3.0 0.00 0.00 0.00 50 1007.0
20260504021544 63 286 2.0 3.0 0.00 0.00 0.00 51 1006.6
20260504021039 64 286 3.0 6.0 0.00 0.00 0.00 52 1007.0
20260504020522 65 286 2.0 6.0 0.00 0.00 0.00 50 1007.0
20260504020020 65 286 0.0 0.0 0.00 0.00 0.00 45 1007.0
20260504015452 65 286 0.0 2.0 0.00 0.00 0.00 44 1007.0
20260504014929 66 286 1.0 4.0 0.00 0.00 0.00 44 1007.1
20260504014359 66 286 2.0 3.0 0.00 0.00 0.00 45 1007.1
20260504013831 67 286 2.0 4.0 0.00 0.00 0.00 44 1007.2
20260504013301 68 281 2.0 2.0 0.00 0.00 0.00 45 1007.2
20260504012734 68 281 1.0 2.0 0.00 0.00 0.00 40 1007.2
20260504012208 69 281 1.0 2.0 0.00 0.00 0.00 41 1007.2
20260504011641 69 281 1.0 2.0 0.00 0.00 0.00 39 1007.1
20260504011613 69 281 0.0 2.0 0.00 0.00 0.00 39 1006.8
20260504011115 70 281 1.0 4.0 0.00 0.00 0.00 38 1007.2
20260504010553 70 281 1.0 4.0 0.00 0.00 0.00 38 1007.2
20260504010029 71 281 2.0 4.0 0.00 0.00 0.00 37 1007.2
20260504005509 71 281 2.0 4.0 0.00 0.00 0.00 35 1007.2
20260504004935 72 281 2.0 4.0 0.00 0.00 0.00 35 1007.3
20260504004413 72 281 4.0 6.0 0.00 0.00 0.00 34 1007.3
20260504003846 72 281 5.0 6.0 0.00 0.00 0.00 33 1007.4
20260504003323 72 277 5.0 7.0 0.00 0.00 0.00 33 1007.5
20260504002759 73 282 5.0 7.0 0.00 0.00 0.00 33 1007.5
20260504002229 73 278 6.0 8.0 0.00 0.00 0.00 33 1007.5
20260504001706 73 271 6.0 8.0 0.00 0.00 0.00 32 1007.5
20260504001630 73 271 6.0 8.0 0.00 0.00 0.00 32 1007.1
20260504001137 74 275 6.0 8.0 0.00 0.00 0.00 33 1007.5
20260504000609 74 273 6.0 8.0 0.00 0.00 0.00 32 1007.6
20260504000106 74 266 5.0 8.0 0.00 0.00 0.00 32 1007.6
20260504000017 74 282 5.0 8.0 0.00 0.00 0.00 32 1007.3
20260503235034 74 286 5.0 8.0 0.00 0.00 0.00 34 1007.6
20260503234523 74 0 6.0 10.0 0.00 0.00 0.00 33 1007.7
20260503234021 74 294 5.0 10.0 0.00 0.00 0.00 33 1007.7
20260503233454 74 290 6.0 12.0 0.00 0.00 0.00 33 1007.7
20260503232438 75 251 8.0 12.0 0.00 0.00 0.00 33 1007.8
20260503231927 75 259 8.0 12.0 0.00 0.00 0.00 33 1007.8
20260503231427 76 254 7.0 12.0 0.00 0.00 0.00 32 1007.9
20260503230402 76 232 7.0 10.0 0.00 0.00 0.00 32 1008.0
20260503225347 76 290 6.0 10.0 0.00 0.00 0.00 32 1007.9
20260503224849 76 15 6.0 10.0 0.00 0.00 0.00 32 1007.9
20260503224348 76 284 7.0 10.0 0.00 0.00 0.00 32 1007.9
20260503223848 76 0 7.0 12.0 0.00 0.00 0.00 33 1008.0
20260503223359 76 264 8.0 15.0 0.00 0.00 0.00 32 1008.0
20260503222851 77 260 6.0 15.0 0.00 0.00 0.00 31 1008.0
20260503221747 77 196 4.0 9.0 0.00 0.00 0.00 30 1007.9
20260503221220 77 267 5.0 9.0 0.00 0.00 0.00 30 1008.0